This demonstration page uses our WeatherBlox Daily Observations layout. Learn more.

39.08367, -84.50855

Hourly Observations for October 7, 2019

Temp ( °F °C ) Dew Point ( °F °C ) Humidity (%) Winds ( mph kmh ) Pressure ( in mb ) Visibility ( mi km ) Precip ( " mm )
12:53 am 00:53 Cloudy with Light Rain 60 15.6 58 14.4 93 93 NW 5 7 30.16 1021 8 12.87472 0.03 0.762
1:53 am 01:53 Cloudy with Rain 59 15 57 13.9 93 93 NW 6 9 30.16 1021 7 11.26538 0.03 0.762
2:53 am 02:53 Cloudy with Light Rain 57 13.9 56 13.3 96 96 Calm 30.15 1021 9 14.48406 0.08 2.032
3:53 am 03:53 Cloudy with Rain 57 13.9 55 12.8 93 93 Calm 30.16 1021 4 6.43736 0.03 0.762
4:53 am 04:53 Cloudy with Light Rain 57 13.9 56 13.3 96 96 Calm 30.14 1021 8 12.87472 0.03 0.762
5:53 am 05:53 Cloudy with Rain 57 13.9 56 13.3 96 96 Calm 30.18 1022 6 9.65604 0.02 0.508
6:53 am 06:53 Cloudy 57 13.9 55 12.8 93 93 Calm 30.17 1022 8 12.87472 0.02 0.508
7:53 am 07:53 Cloudy with Light Rain 57 13.9 55 12.8 93 93 Calm 30.17 1022 8 12.87472 0.001 0.001
8:53 am 08:53 Cloudy with Light Rain 57 13.9 55 12.8 93 93 Calm 30.19 1022 10 16.0934 0.001 0.001
9:53 am 09:53 Cloudy with Light Rain 57 13.9 56 13.3 96 96 SSE 5 7 30.22 1023 10 16.0934 0.01 0.254
10:30 am 10:30 Partly Cloudy 57 13.9 56 13.3 96 96 S 6 9 30.22 1023 7 11.26538 0.001 0.001
10:53 am 10:53 Mostly Sunny 57 13.9 56 13.3 96 96 S 5 7 30.23 1024 10 16.0934 0.001 0.001
11:53 am 11:53 Partly Cloudy 57 13.9 54 12.2 90 90 Calm 30.22 1023 10 16.0934 0 0
12:53 pm 12:53 Mostly Sunny 59 15 54 12.2 83 83 Calm 30.21 1023 10 16.0934 0 0
1:53 pm 13:53 Sunny 60 15.6 53 11.7 78 78 Calm 30.2 1023 10 16.0934 0 0
2:53 pm 14:53 Sunny 60 15.6 55 12.8 84 84 SSE 3 6 30.19 1023 10 16.0934 0 0
3:53 pm 15:53 Sunny 61 16.1 55 12.8 81 81 undefined N/A 30.19 1022 10 16.0934 0 0
4:53 pm 16:53 Sunny 64 17.8 56 13.3 75 75 ESE 3 6 30.18 1022 10 16.0934 0 0
5:53 pm 17:53 Mostly Sunny 63 17.2 54 12.2 73 73 Calm 30.19 1022 10 16.0934 0 0
6:53 pm 18:53 Sunny 61 16.1 56 13.3 84 84 Calm 30.19 1022 10 16.0934 0 0
7:53 pm 19:53 Clear 56 13.3 55 12.8 97 97 Calm 30.2 1023 8 12.87472 0 0
8:41 pm 20:41 Mostly Clear with Mist and Fog 54 12.2 53 11.7 97 97 Calm 30.21 1023 1.5 2.41401 0 0
8:48 pm 20:48 Clear with Fog 54 12 54 12 100 100 Calm 30.21 1023 9 14.48406 0 0
8:53 pm 20:53 Clear with Fog 53 11.7 53 11.7 100 100 Calm 30.21 1023 9 14.48406 0 0
9:53 pm 21:53 Clear with Patchy Fog 52 11.1 52 11.1 100 100 Calm 30.23 1024 7 11.26538 0 0
10:25 pm 22:25 Partly Cloudy with Patchy Fog 50 10 50 10 100 100 Calm 30.25 1024 1 1.60934 0 0
10:53 pm 22:53 Cloudy with Fog 51 10.6 51 10.6 100 100 Calm 30.25 1024 0.25 0.402335 0 0
11:04 pm 23:04 Cloudy with Fog 50 10 50 10 100 100 Calm 30.26 1025 0.25 0.402335 0 0
11:20 pm 23:20 Mostly Cloudy with Mist and Fog 52 11.1 52 11.1 100 100 Calm 30.26 1025 0.75 1.207005 0 0
11:29 pm 23:29 Mostly Cloudy with Fog 51 10.6 51 10.6 100 100 Calm 30.26 1025 0.5 0.80467 0 0
11:53 pm 23:53 Mostly Cloudy with Fog 52 11.1 52 11.1 100 100 Calm 30.24 1024 0.25 0.402335 0 0

Powered by AerisWeather